Regional Weather Roundup
Issued by NWS Upton, NY

Current Version | Previous Version | Text Only | Print | Product List | Glossary On
Versions: 1 2 3 4 5 6 7 8 9 10 11 12 13 14 15 16 17 18 19 20 21 22 23 24 25 26 27 28 29 30 31 32 33 34 35 36 37 38 39 40 41 42 43 44 45 46 47 48 49 50
000 ASUS41 KOKX 251205 RWROKX REGIONAL WEATHER ROUNDUP NATIONAL WEATHER SERVICE NEW YORK NY 700 AM EST SUN JAN 25 2015 NOTE: "FAIR" INDICATES FEW OR NO CLOUDS BELOW 12,000 FEET WITH NO SIGNIFICANT WEATHER AND/OR OBSTRUCTIONS TO VISIBILITY. NYZ071-072-176-178-NJZ106-104-251300- NEW YORK CITY METRO AREA CITY SKY/WX TMP DP RH WIND PRES REMARKS CENTRAL PARK CLOUDY 36 24 62 W12G20 29.67R WCI 28 LAGUARDIA APRT MOCLDY 36 25 64 SW12G20 29.65R WCI 28 KENNEDY INTL MOCLDY 35 26 69 W17 29.67R WCI 25 NEWARK/LIBERTY MOCLDY 33 27 78 SW12 29.67R WCI 24 BRNX BOT. GARD N/A N/A N/A N/A SW15 29.66R TETERBORO CLOUDY 34 25 69 SW8 29.64R WCI 27 $$ NYZ177-179-078>081-251300- LONG ISLAND NEW YORK CITY SKY/WX TMP DP RH WIND PRES REMARKS FARMINGDALE CLOUDY 34 26 72 W9 29.65R WCI 27 ISLIP MOCLDY 33 25 72 SW13 29.62R WCI 24 SHIRLEY CLEAR 34 25 69 W8 29.65R WCI 27 WESTHAMPTON CLEAR 33 25 72 W14 29.63R WCI 23 MONTAUK POINT N/A 37 29 72 W10G21 29.60R WCI 30 $$ NYZ052-065-067-251300- HUDSON VALLEY CITY SKY/WX TMP DP RH WIND PRES REMARKS WHITE PLAINS MOCLDY 33 24 69 W6 29.60R WCI 28 NEWBURGH CLOUDY 34 27 75 W12 29.60R WCI 25 MONTGOMERY CLOUDY 33 26 75 S5 29.59R WCI 29 POUGHKEEPSIE CLOUDY 35 26 69 SW9 29.59R WCI 28 ALBANY MOCLDY 32 18 56 W22G41 29.59R WCI 19 $$ NJZ001-105-106-008-010-013-015-019>022-104-251300- NEW JERSEY CITY SKY/WX TMP DP RH WIND PRES REMARKS NEWARK/LIBERTY MOCLDY 33 27 78 SW12 29.67R WCI 24 TETERBORO CLOUDY 34 25 69 SW8 29.64R WCI 27 CALDWELL CLOUDY 33 25 72 SW5 29.65R WCI 29 MORRISTOWN N/A 34 27 75 W7 29.65R WCI 28 SOMERVILLE CLOUDY 34 26 72 S5 29.66R WCI 30 SUSSEX CLOUDY 32 24 72 VRB6 29.61R WCI 26 ANDOVER N/A 31 25 78 S3 29.63R TRENTON CLOUDY 33 26 75 SW6 29.70R WCI 28 MILLVILLE CLOUDY 35 29 78 W9 29.77R WCI 28 ATLANTIC CITY MOCLDY 34 27 75 W12 29.76R WCI 25 WRIGHTSTOWN MOCLDY 33 27 81 W9 29.71R WCI 25 TOMS RIVER PTCLDY 30 27 86 CALM 29.72R BELMAR PTCLDY 32 23 69 SW7 29.70R WCI 26 $$ PAZ047>061-062-071-251300- EASTERN PENNSYLVANIA CITY SKY/WX TMP DP RH WIND PRES REMARKS PHILADELPHIA CLOUDY 36 28 73 SW16 29.75R WCI 26 ALLENTOWN CLOUDY 35 27 72 SW13 29.67R WCI 26 SCRANTON CLOUDY 33 26 75 SW10 29.63R WCI 25 $$ CTZ002-004>006-009-010-012-RIZ004-006-007-MAZ004-011-015-251300- SOUTHERN NEW ENGLAND IN CT CITY SKY/WX TMP DP RH WIND PRES REMARKS BRADLEY INTL MOCLDY 33 26 75 S10 29.54R WCI 25 HARTFORD CLOUDY 33 26 75 SW10 29.58R WCI 25 DANBURY CLOUDY 33 23 66 SW7 29.59R WCI 27 WTRBRY/OXFORD CLOUDY 32 21 64 W8 29.56R WCI 25 BRIDGEPORT CLOUDY 35 28 75 SW13 29.61R WCI 26 MERIDEN CLOUDY 34 25 69 VRB5 29.58R WCI 30 NEW HAVEN MOCLDY 35 28 75 W15G24 29.60R WCI 25 CHESTER PTSUNNY 32 28 86 W7 29.58R WCI 26 GROTON CLEAR 30 25 81 W7 29.58R WCI 23 WILLIMANTIC MOCLDY 31 25 78 SW5 29.56R WCI 26 IN RI CITY SKY/WX TMP DP RH WIND PRES REMARKS PROVIDENCE PTCLDY 30 24 78 W15 29.54R WCI 19 BLOCK ISLAND CLEAR 36 27 69 W15G24 29.57R WCI 26 WESTERLY CLEAR 31 25 78 W5 29.58R WCI 26 IN MA CITY SKY/WX TMP DP RH WIND PRES REMARKS BOSTON PTCLDY 34 26 72 W18G26 29.48R WCI 23 WORCESTER CLOUDY 28 25 88 W13 29.46R WCI 17 WESTFIELD CLOUDY 32 25 75 S10 29.52R WCI 24 PROVINCETOWN NOT AVBL NANTUCKET CLOUDY 35 27 72 W17G26 29.53R WCI 25 $$ ANZ330-335-338-340-345-350-353-355-251300- COASTAL MARINE OBSERVATIONS STATION/POSITION TIME SKY/WX TEMP WIND PRES VSBY WAVE AIR SEA DIR/SP/G HT/PER (UTC) (F) (DEG/KT/KT) (MB) (MI) (FT/S) NY HARB ENTRANCE 1200 37 42 260/ 21/ 25 1004.3 4/11 4S FIRE IS 1200 39 N/A 7/13 20S FIRE ISLAND 1100 41 1003.2 8/ 6 23SW MTP 1200 N/A 9/11 HUDSON CANYON NOT AVBL EXECUTION ROCKS 1200 36 35 250/ 16/ 21 N/A WESTERN LI SOUND 1200 36 240/ 16/ 19 N/A 1/ 3 CENTRAL LI SOUND 1100 36 36 250/ 21/ 25 N/A 4/ 4 EASTERN LI SOUND NOT AVBL ROBBINS REEF 1200 35 250/ 14/ 17 1003.2 $$ >>>>>>>>>>>>>>>>>>>>>>>>>>>> KEY <<<<<<<<<<<<<<<<<<<<<<<<<<< > < > SKY/WX - SKY CONDITION/PRESENT WEATHER < > TMP - TEMPERATURE IN FAHRENHEIT < > DP - DEWPOINT IN FAHRENHEIT < > RH - RELATIVE HUMIDITY IN PERCENT < > WIND - DIRECTION AND SPEED IN MPH < > PRES - MEAN SEA LEVEL PRESSURE IN INCHES OF HG < > WCI - WIND CHILL INDEX < > VSB - VISIBILITY IN MILES < > HX - HEAT INDEX < > TC - TEMPERATURE IN CELSIUS < > VRB - VARIABLE WIND DIRECTION < > < >>>>>>>>>>>>>>>>>>>>>>>>>>>> KEY <<<<<<<<<<<<<<<<<<<<<<<<<<<

USA.gov is the U.S. government's official web portal to all federal, state and local government web resources and services.